Regional Weather Roundup
Issued by NWS

Home | Current Version | Previous Version | Graphics & Text | Print | Product List | Glossary On
Versions: 1 2 3 4 5 6 7 8 9 10 11 12 13 14 15 16 17 18 19 20 21 22 23 24 25 26 27 28 29 30 31 32 33 34 35 36 37 38 39 40 41 42 43 44 45 46 47 48 49 50
000
ASUS45 KBOI 182010
RWRID
WEATHER ROUNDUP FOR IDAHO
NATIONAL WEATHER SERVICE BOISE ID
200 PM MDT SAT APR 18 2015

NOTE: "FAIR" INDICATES FEW OR NO CLOUDS BELOW 12000 FEET
WITH NO SIGNIFICANT WEATHER AND/OR OBSTRUCTIONS TO VISIBILITY

IDZ012-014-182100-
SOUTHWEST IDAHO


CITY           SKY/WX    TMP DP  RH WIND       PRES   REMARKS
BOISE          SUNNY     70  31  23 NW23G35   30.09F
CALDWELL       SUNNY     70  34  26 NW18G24   30.13F
MOUNTAIN HOME  PTSUNNY   69  31  24 NW29G35   30.06F
$$

IDZ016-017-182100-
SOUTHCENTRAL IDAHO


CITY           SKY/WX    TMP DP  RH WIND       PRES   REMARKS
BURLEY         SUNNY     65  29  25 NW8G17    30.05F
JEROME         SUNNY     65  29  25 W12G18    30.07F
TWIN FALLS     SUNNY     68  30  24 W15G24    30.07F
$$

IDZ019>023-182100-
SOUTHEAST IDAHO


CITY           SKY/WX    TMP DP  RH WIND       PRES   REMARKS
IDAHO FALLS    MOSUNNY   67  20  16 N17G28    30.03F
POCATELLO      MOSUNNY   65  27  23 VRB3      30.04F
REXBURG        PTSUNNY   63  22  20 N10       30.02F
$$

IDZ006-010-011-018-031-032-182100-
CENTRAL IDAHO MOUNTAINS


CITY           SKY/WX    TMP DP  RH WIND       PRES   REMARKS
MCCALL         SUNNY     58  21  24 N15G25    30.16F
HAILEY         MOSUNNY   63  30  29 SE12      30.09S
STANLEY          N/A     58  15  18 NW10      30.16F
SALMON         SUNNY     63  21  20 NE5       30.09F
CHALLIS        SUNNY     62  15  16 NE14G20   30.11F
$$

IDZ002-004-006-007-026-182100-
NORTHERN IDAHO


CITY           SKY/WX    TMP DP  RH WIND       PRES   REMARKS
LEWISTON       SUNNY     68  29  23 W14G21    30.23F
LOWELL           N/A     66  35  31 SE10      30.19F
COEUR D`ALENE  SUNNY     63  25  23 W5        30.22F
MULLAN PASS    SUNNY     49  17  28 NW7       30.23S
$$



USA.gov is the U.S. government's official web portal to all federal, state and local government web resources and services.